CW9690 Weather Reports


time (UTC)temp
C
wind
direction
speed
KPH
gust
KPH
rain 1hr
cm
rain 24hr
cm
rain mn
cm
humidity
%
barometer
mb
20260508080017 3 360 0.0 0.0 0.00 0.28 0.00 79 1003.6
20260508080010 3 332 3.2 16.1 0.00 0.18 0.00 88 1002.1
20260508074518 4 293 0.0 0.0 0.00 0.28 0.00 78 1003.6
20260508073012 4 313 0.0 0.0 0.00 0.28 0.00 78 1003.7
20260508071512 4 303 0.0 1.6 0.00 0.48 0.00 77 1003.6
20260508070510 2 343 1.6 4.8 0.00 0.30 0.00 88 1002.3
20260508070010 2 332 0.0 9.7 0.00 0.30 0.00 88 1002.5
20260508064508 5 268 0.0 3.2 0.00 0.48 0.00 77 1003.6
20260508063009 3 311 0.0 3.2 0.00 0.46 0.00 84 1002.4
20260508063006 5 302 0.0 0.0 0.00 0.48 0.00 77 1003.7
20260508061504 5 294 0.0 0.0 0.00 0.58 0.00 77 1003.8
20260508060510 5 311 0.0 3.2 0.00 0.51 0.00 84 1002.9
20260508060010 5 311 0.0 4.8 0.00 0.51 0.00 84 1002.9
20260508060005 5 280 0.0 0.0 0.00 0.58 0.00 76 1004.0
20260508054559 5 296 0.0 0.0 0.00 0.58 0.00 75 1004.0
20260508053030 6 210 0.0 3.2 0.00 0.58 0.00 74 1004.0
20260508053011 5 316 0.0 4.8 0.00 0.51 0.00 82 1002.9
20260508051529 6 295 0.0 0.0 0.00 0.71 0.00 73 1004.0
20260508050054 6 307 0.0 0.0 0.00 0.71 0.00 72 1004.3
20260508044550 6 314 0.0 4.8 0.00 0.71 0.00 72 1004.5
20260508043509 6 320 1.6 4.8 0.00 0.58 0.00 85 1002.9
20260508043050 7 295 0.0 0.0 0.00 0.71 0.00 72 1004.6
20260508043010 6 320 1.6 8.0 0.00 0.61 0.00 85 1002.9
20260508041543 7 328 0.0 4.8 0.00 0.76 0.00 71 1004.4
20260508040510 6 358 3.2 4.8 0.00 0.61 0.00 87 1002.9
20260508040040 7 307 0.0 0.0 0.00 0.76 0.00 74 1004.5
20260508040010 6 331 3.2 4.8 0.00 0.64 0.00 88 1002.9
20260508034547 7 221 0.0 0.0 0.00 0.76 0.00 78 1004.5
20260508033039 7 310 0.0 0.0 0.00 0.76 0.00 80 1004.4
20260508031536 7 295 0.0 0.0 0.00 0.76 0.00 82 1004.3
20260508030032 7 296 0.0 0.0 0.00 0.76 0.00 82 1004.3
20260508030011 7 335 0.0 0.0 0.00 0.64 0.00 85 1002.8
20260508024528 7 301 0.0 0.0 0.00 0.76 0.00 81 1004.3
20260508023511 7 335 0.0 0.0 0.00 0.64 0.64 83 1002.8
20260508023026 8 322 0.0 0.0 0.00 0.76 0.00 80 1004.2
20260508021527 8 337 0.0 0.0 0.00 0.76 0.00 79 1004.3
20260508020511 8 335 1.6 4.8 0.00 0.64 0.64 82 1002.8
20260508020031 8 335 0.0 0.0 0.00 0.76 0.00 77 1004.3
20260508014519 8 19 0.0 0.0 0.00 0.76 0.00 75 1004.4
20260508013017 8 322 0.0 1.6 0.00 0.76 0.00 73 1004.4
20260508011514 9 13 0.0 0.0 0.00 0.79 0.00 73 1004.4
20260508010011 10 340 3.2 16.1 0.00 0.66 0.64 77 1002.6
20260508004510 9 323 0.0 11.3 0.00 0.79 0.00 71 1004.1
20260508003510 10 327 9.7 14.5 0.00 0.66 0.64 74 1002.0
20260508003010 10 337 8.0 20.9 0.00 0.66 0.64 74 1002.0
20260508003005 10 293 0.0 16.1 0.00 0.79 0.00 71 1004.3
20260508001501 10 11 0.0 8.0 0.00 0.79 0.79 70 1004.0
20260508000510 11 227 8.0 20.9 0.00 0.66 0.64 71 1002.0
20260508000030 11 294 0.0 11.3 0.00 0.79 0.79 66 1003.6
20260507234539 12 2 0.0 4.8 0.00 0.79 0.79 59 1003.2
20260507233509 12 270 4.8 25.7 0.00 0.66 0.64 61 1000.7
20260507233027 12 307 0.0 1.6 0.00 0.79 0.79 53 1002.8
20260507231527 13 334 0.0 8.0 0.00 0.79 0.79 50 1002.5
20260507230026 13 307 0.0 6.4 0.00 0.79 0.79 45 1002.3
20260507230009 13 304 3.2 8.0 0.00 0.66 0.64 51 1000.7
20260507224527 13 295 0.0 0.0 0.00 0.79 0.79 46 1002.3
20260507223509 14 322 1.6 4.8 0.00 0.66 0.64 51 1000.5
20260507223025 14 323 0.0 0.0 0.00 0.79 0.79 44 1002.3
20260507221522 14 307 0.0 0.0 0.00 0.79 0.79 43 1002.3
20260507220509 15 286 1.6 4.8 0.00 0.69 0.64 48 1000.4
20260507220021 15 120 0.0 0.0 0.00 0.79 0.79 43 1002.2
20260507220009 15 286 4.8 19.3 0.00 0.69 0.64 46 1000.4
20260507214524 15 313 0.0 0.0 0.00 0.79 0.79 42 1002.1
20260507213021 15 294 0.0 3.2 0.00 0.79 0.79 43 1002.0
20260507211518 15 292 0.0 1.6 0.00 0.79 0.79 41 1002.0
20260507210017 15 302 0.0 4.8 0.00 0.79 0.79 42 1001.9
20260507204516 16 329 0.0 0.0 0.00 0.79 0.79 40 1001.8
20260507203016 16 306 0.0 1.6 0.00 0.79 0.79 41 1001.8
20260507201553 16 330 0.0 1.6 0.00 0.79 0.79 41 1001.8
20260507200045 16 311 0.0 6.4 0.00 0.79 0.79 40 1001.9
20260507200009 17 281 4.8 19.3 0.00 0.69 0.64 44 1000.3
20260507194540 16 174 0.0 14.5 0.00 0.79 0.79 44 1002.0
20260507193509 16 261 6.4 11.3 0.00 0.69 0.64 45 1000.2
20260507193048 15 359 0.0 19.3 0.00 0.79 0.79 45 1001.9
20260507191537 15 49 1.6 9.7 0.00 0.79 0.79 43 1002.0
20260507190037 15 355 0.0 6.4 0.00 0.79 0.79 47 1002.1
20260507184533 15 347 0.0 9.7 0.00 0.79 0.79 50 1002.2
20260507183037 15 6 0.0 6.4 0.00 0.79 0.79 49 1002.2
20260507183009 16 319 4.8 16.1 0.00 0.69 0.64 55 1000.5
20260507181531 15 295 0.0 12.9 0.00 0.79 0.79 53 1002.2
20260507180508 15 327 6.4 16.1 0.00 0.69 0.64 53 1001.1
20260507180030 15 33 0.0 17.7 0.00 0.79 0.79 55 1002.3
20260507174527 14 37 6.4 14.5 0.00 0.79 0.79 53 1002.5
20260507173508 15 292 9.7 19.3 0.00 0.69 0.64 63 1001.1
20260507173035 15 285 0.0 11.3 0.00 0.79 0.79 60 1002.6
20260507171520 14 56 4.8 16.1 0.00 0.79 0.79 56 1002.8
20260507170509 15 296 8.0 16.1 0.00 0.69 0.64 63 1001.1
20260507170017 13 341 0.0 14.5 0.00 0.79 0.79 62 1002.8
20260507170009 15 329 9.7 22.5 0.00 0.69 0.64 64 1001.1
20260507164511 13 312 0.0 8.0 0.00 0.79 0.79 64 1002.9
20260507163008 13 332 8.0 20.9 0.00 0.69 0.64 67 1001.5
20260507161517 12 350 0.0 1.6 0.00 0.79 0.79 73 1003.3
20260507160509 13 300 9.7 24.1 0.00 0.69 0.64 72 1002.4
20260507160008 13 310 4.8 19.3 0.00 0.69 0.64 76 1002.4
20260507160004 11 44 0.0 3.2 0.00 0.79 0.79 79 1003.6
20260507154536 11 25 0.0 9.7 0.00 0.79 0.79 81 1003.7
20260507153031 10 313 0.0 14.5 0.00 0.79 0.79 89 1004.0
20260507153009 12 297 8.0 19.3 0.00 0.69 0.64 74 1002.4
20260507151601 9 329 1.6 9.7 0.00 0.79 0.79 88 1003.9
20260507150508 12 342 6.4 16.1 0.00 0.69 0.64 77 1002.4
20260507150100 9 27 0.0 8.0 0.00 0.79 0.79 88 1004.0
20260507144616 9 19 0.0 3.2 0.00 0.79 0.79 87 1004.4
20260507143508 11 252 8.0 19.3 0.00 0.69 0.64 83 1002.7
20260507143057 8 328 0.0 0.0 0.00 0.79 0.79 87 1004.5
20260507143009 10 345 4.8 14.5 0.00 0.69 0.64 83 1002.7
20260507141620 8 292 0.0 12.9 0.00 0.79 0.79 87 1004.2
20260507140508 10 328 4.8 12.9 0.00 0.69 0.64 84 1002.8
20260507140054 8 303 0.0 4.8 0.00 0.79 0.79 86 1004.2
20260507134552 8 314 0.0 6.4 0.00 0.79 0.79 86 1004.3
20260507133051 8 30 0.0 6.4 0.00 0.79 0.79 85 1004.0
20260507131550 8 333 0.0 0.0 0.00 0.79 0.79 84 1004.0
20260507130055 8 232 0.0 0.0 0.00 0.79 0.79 84 1004.7
20260507124546 8 278 0.0 0.0 0.00 0.79 0.79 84 1004.9
20260507123049 8 303 0.0 0.0 0.00 0.79 0.79 83 1004.3
20260507121546 8 311 0.0 4.8 0.00 0.79 0.79 83 1004.3
20260507120508 8 343 3.2 14.5 0.00 0.69 0.64 94 1002.6
20260507120047 7 300 0.0 4.8 0.00 0.79 0.79 83 1004.1
20260507114543 7 238 0.0 0.0 0.00 0.79 0.79 83 1003.6
20260507113042 7 302 0.0 8.0 0.00 0.79 0.79 83 1003.6
20260507113009 8 290 3.2 14.5 0.00 0.71 0.64 95 1002.2
20260507111544 7 267 0.0 1.6 0.00 0.81 0.79 82 1003.7
20260507110508 8 295 3.2 8.0 0.00 0.71 0.64 96 1002.3
20260507110041 7 238 0.0 0.0 0.00 0.81 0.79 82 1004.0
20260507104538 7 188 0.0 1.6 0.00 0.81 0.79 82 1004.1
20260507103508 8 304 3.2 4.8 0.00 0.71 0.64 96 1002.0
20260507103040 8 214 0.0 11.3 0.00 0.81 0.79 82 1003.5
20260507101545 8 300 0.0 0.0 0.00 0.81 0.79 82 1003.3
20260507100042 8 289 0.0 3.2 0.00 0.81 0.79 82 1003.0
20260507094542 8 319 0.0 8.0 0.03 0.81 0.79 82 1003.0
20260507093508 8 252 3.2 9.7 0.03 0.71 0.64 96 1001.5
20260507093036 8 195 0.0 0.0 0.03 0.81 0.79 82 1002.8
20260507093008 8 234 1.6 16.1 0.03 0.71 0.64 96 1000.8
20260507091532 8 303 0.0 8.0 0.05 0.81 0.79 82 1002.5
20260507090508 9 279 1.6 8.0 0.13 0.71 0.61 96 1000.8
20260507090035 8 316 0.0 0.0 0.18 0.81 0.79 82 1002.0
20260507084535 8 330 0.0 0.0 0.23 0.79 0.76 82 1001.8
20260507083027 8 238 0.0 0.0 0.25 0.79 0.76 82 1001.9
20260507081526 8 284 0.0 0.0 0.23 0.76 0.71 82 1002.1